When you browse on this site, cookies collect data to enhance your experience and personalize the content and advertising you see.
Visit our Privacy Policy to learn more. By continuing to use the site, you agree to this use of cookies and data.
  • En España
  • Lista de países
  • Para 7 días
  • Temperatura del agua
  • El tiempo en el mapa
  • Informadores
  • user-avatar
    Iniciar sesión

    Tiempo cada hora La Rioja

    Hoy, 21 Septiembre, Sábado

    Tiempo Temperatura Precipitaciones Viento Presión Humedad
    00:00 +10°C° 0 mm 0 mps 718 mmHg 20%
    01:00 +10°C° 0 mm 0 mps 718 mmHg 21%
    02:00 +10°C° 0 mm 0 mps 718 mmHg 21%
    03:00 +9°C° 0 mm 0 mps 718 mmHg 22%
    04:00 +9°C° 0 mm 0 mps 717 mmHg 23%
    05:00 +8°C° 0 mm 0 mps 717 mmHg 24%
    06:00 +11°C° 0 mm 1 mps 718 mmHg 21%
    07:00 +14°C° 0 mm 1 mps 718 mmHg 19%
    08:00 +16°C° 0 mm 1 mps 719 mmHg 17%
    09:00 +18°C° 0 mm 1 mps 718 mmHg 16%
    10:00 +19°C° 0 mm 2 mps 718 mmHg 15%
    11:00 +20°C° 0 mm 2 mps 718 mmHg 14%
    12:00 +21°C° 0 mm 2 mps 717 mmHg 13%
    13:00 +23°C° 0 mm 2 mps 717 mmHg 12%
    14:00 +24°C° 0 mm 3 mps 716 mmHg 12%
    15:00 +25°C° 0 mm 2 mps 716 mmHg 12%
    16:00 +25°C° 0 mm 2 mps 716 mmHg 12%
    17:00 +25°C° 0 mm 2 mps 716 mmHg 12%
    18:00 +23°C° 0 mm 2 mps 717 mmHg 14%
    19:00 +20°C° 0 mm 2 mps 717 mmHg 15%
    20:00 +18°C° 0 mm 2 mps 718 mmHg 17%
    21:00 +17°C° 0 mm 2 mps 718 mmHg 21%
    22:00 +16°C° 0 mm 1 mps 718 mmHg 24%
    23:00 +15°C° 0 mm 1 mps 719 mmHg 27%

    Mañana, 22 Septiembre, Domingo

    Tiempo Temperatura Precipitaciones Viento Presión Humedad
    00:00 +15°C° 0 mm 1 mps 718 mmHg 30%
    01:00 +14°C° 0 mm 1 mps 718 mmHg 32%
    02:00 +14°C° 0 mm 1 mps 718 mmHg 35%
    03:00 +13°C° 0 mm 1 mps 718 mmHg 39%
    04:00 +13°C° 0 mm 1 mps 718 mmHg 43%
    05:00 +13°C° 0 mm 2 mps 719 mmHg 47%
    06:00 +14°C° 0 mm 2 mps 719 mmHg 42%
    07:00 +16°C° 0 mm 2 mps 720 mmHg 38%
    08:00 +18°C° 0 mm 3 mps 720 mmHg 34%
    09:00 +19°C° 0 mm 3 mps 720 mmHg 31%
    10:00 +21°C° 0 mm 3 mps 720 mmHg 28%
    11:00 +23°C° 0 mm 2 mps 720 mmHg 25%
    12:00 +24°C° 0 mm 3 mps 719 mmHg 24%
    13:00 +25°C° 0 mm 3 mps 718 mmHg 22%
    14:00 +26°C° 0 mm 3 mps 717 mmHg 21%
    15:00 +27°C° 0 mm 4 mps 717 mmHg 21%
    16:00 +27°C° 0 mm 4 mps 717 mmHg 22%
    17:00 +27°C° 0 mm 4 mps 716 mmHg 23%
    18:00 +26°C° 0 mm 4 mps 716 mmHg 27%
    19:00 +23°C° 0 mm 4 mps 717 mmHg 31%
    20:00 +21°C° 0 mm 4 mps 717 mmHg 36%
    21:00 +20°C° 0 mm 3 mps 717 mmHg 37%
    22:00 +19°C° 0 mm 3 mps 717 mmHg 38%
    23:00 +17°C° 0 mm 2 mps 717 mmHg 40%

    Pasado mañana, 23 Septiembre, Lunes

    Tiempo Temperatura Precipitaciones Viento Presión Humedad
    00:00 +16°C° 0 mm 2 mps 717 mmHg 41%
    01:00 +16°C° 0 mm 2 mps 716 mmHg 42%
    02:00 +15°C° 0 mm 1 mps 716 mmHg 44%
    03:00 +14°C° 0 mm 2 mps 716 mmHg 45%
    04:00 +14°C° 0 mm 2 mps 716 mmHg 46%
    05:00 +13°C° 0 mm 3 mps 715 mmHg 46%
    06:00 +14°C° 0 mm 3 mps 716 mmHg 44%
    07:00 +15°C° 0 mm 4 mps 716 mmHg 41%
    08:00 +17°C° 0 mm 4 mps 716 mmHg 39%
    09:00 +19°C° 0 mm 4 mps 717 mmHg 35%
    10:00 +20°C° 0 mm 5 mps 717 mmHg 32%
    11:00 +22°C° 0 mm 6 mps 717 mmHg 28%
    12:00 +23°C° 0 mm 5 mps 717 mmHg 27%
    13:00 +25°C° 0 mm 5 mps 717 mmHg 25%
    14:00 +26°C° 0 mm 5 mps 717 mmHg 23%
    15:00 +26°C° 0 mm 5 mps 717 mmHg 24%
    16:00 +26°C° 0 mm 4 mps 717 mmHg 24%
    17:00 +26°C° 0 mm 4 mps 717 mmHg 24%
    18:00 +24°C° 0 mm 3 mps 718 mmHg 28%
    19:00 +22°C° 0 mm 3 mps 719 mmHg 31%
    20:00 +20°C° 0 mm 2 mps 720 mmHg 35%
    21:00 +19°C° 0 mm 2 mps 720 mmHg 37%
    22:00 +19°C° 0 mm 1 mps 721 mmHg 40%
    23:00 +19°C° 0 mm 1 mps 721 mmHg 42%

    24 Septiembre, Martes

    Tiempo Temperatura Precipitaciones Viento Presión Humedad
    00:00 +18°C° 0 mm 1 mps 721 mmHg 45%
    01:00 +16°C° 0 mm 1 mps 721 mmHg 47%
    02:00 +16°C° 0 mm 1 mps 721 mmHg 49%
    03:00 +15°C° 0 mm 1 mps 721 mmHg 50%
    04:00 +15°C° 0 mm 1 mps 721 mmHg 51%
    05:00 +15°C° 0 mm 2 mps 721 mmHg 51%
    06:00 +18°C° 0 mm 1 mps 722 mmHg 46%
    07:00 +20°C° 0 mm 1 mps 723 mmHg 40%
    08:00 +22°C° 0 mm 1 mps 724 mmHg 35%
    09:00 +23°C° 0 mm 1 mps 724 mmHg 31%
    10:00 +25°C° 0 mm 2 mps 724 mmHg 28%
    11:00 +26°C° 0 mm 2 mps 724 mmHg 25%
    12:00 +27°C° 0 mm 3 mps 723 mmHg 24%
    13:00 +28°C° 0 mm 3 mps 722 mmHg 22%
    14:00 +29°C° 0 mm 4 mps 721 mmHg 21%
    15:00 +29°C° 0 mm 4 mps 721 mmHg 21%
    16:00 +29°C° 0 mm 3 mps 720 mmHg 21%
    17:00 +28°C° 0 mm 3 mps 720 mmHg 21%
    18:00 +26°C° 0 mm 2 mps 720 mmHg 25%
    19:00 +24°C° 0 mm 1 mps 721 mmHg 29%
    20:00 +21°C° 0 mm 1 mps 721 mmHg 33%
    21:00 +21°C° 0 mm 1 mps 721 mmHg 34%
    22:00 +20°C° 0 mm 1 mps 721 mmHg 35%
    23:00 +20°C° 0 mm 1 mps 721 mmHg 36%

    25 Septiembre, Miércoles

    Tiempo Temperatura Precipitaciones Viento Presión Humedad
    00:00 +19°C° 0 mm 1 mps 721 mmHg 37%
    01:00 +18°C° 0 mm 1 mps 721 mmHg 39%
    02:00 +18°C° 0 mm 1 mps 721 mmHg 41%
    03:00 +16°C° 0 mm 1 mps 721 mmHg 43%
    04:00 +16°C° 0 mm 1 mps 721 mmHg 44%
    05:00 +15°C° 0 mm 1 mps 721 mmHg 46%
    06:00 +18°C° 0 mm 1 mps 721 mmHg 41%
    07:00 +21°C° 0 mm 1 mps 721 mmHg 35%
    08:00 +23°C° 0 mm 1 mps 722 mmHg 30%
    09:00 +25°C° 0 mm 2 mps 721 mmHg 27%
    10:00 +26°C° 0 mm 2 mps 721 mmHg 24%
    11:00 +28°C° 0 mm 2 mps 721 mmHg 21%
    12:00 +29°C° 0 mm 3 mps 720 mmHg 20%
    13:00 +32°C° 0 mm 4 mps 719 mmHg 18%
    14:00 +33°C° 0 mm 4 mps 718 mmHg 16%
    15:00 +33°C° 0 mm 4 mps 717 mmHg 16%
    16:00 +33°C° 0 mm 5 mps 717 mmHg 15%
    17:00 +33°C° 0 mm 5 mps 716 mmHg 14%
    18:00 +29°C° 0 mm 4 mps 716 mmHg 18%
    19:00 +26°C° 0 mm 3 mps 716 mmHg 22%
    20:00 +24°C° 0 mm 3 mps 716 mmHg 26%
    21:00 +23°C° 0 mm 2 mps 716 mmHg 29%
    22:00 +21°C° 0 mm 2 mps 716 mmHg 32%
    23:00 +21°C° 0 mm 1 mps 716 mmHg 35%

    26 Septiembre, Jueves

    Tiempo Temperatura Precipitaciones Viento Presión Humedad
    00:00 +20°C° 0 mm 1 mps 716 mmHg 38%
    01:00 +19°C° 0 mm 1 mps 715 mmHg 40%
    02:00 +18°C° 0 mm 1 mps 715 mmHg 43%
    03:00 +18°C° 0 mm 1 mps 715 mmHg 42%
    04:00 +18°C° 0 mm 1 mps 714 mmHg 41%
    05:00 +16°C° 0 mm 2 mps 714 mmHg 40%
    06:00 +18°C° 0 mm 2 mps 714 mmHg 36%
    07:00 +19°C° 0 mm 2 mps 714 mmHg 32%
    08:00 +21°C° 0 mm 3 mps 714 mmHg 28%
    09:00 +24°C° 0 mm 3 mps 714 mmHg 26%
    10:00 +25°C° 0 mm 3 mps 714 mmHg 23%
    11:00 +27°C° 0 mm 2 mps 713 mmHg 21%
    12:00 +28°C° 0 mm 2 mps 712 mmHg 20%
    13:00 +30°C° 0 mm 2 mps 711 mmHg 18%
    14:00 +31°C° 0 mm 2 mps 711 mmHg 17%
    15:00 +31°C° 0 mm 3 mps 710 mmHg 17%
    16:00 +32°C° 0 mm 4 mps 710 mmHg 16%
    17:00 +33°C° 0 mm 5 mps 709 mmHg 16%
    18:00 +30°C° 0 mm 4 mps 710 mmHg 19%
    19:00 +28°C° 0 mm 3 mps 710 mmHg 22%
    20:00 +26°C° 0 mm 3 mps 711 mmHg 25%
    21:00 +25°C° 0 mm 3 mps 711 mmHg 27%
    22:00 +24°C° 0 mm 3 mps 711 mmHg 28%
    23:00 +22°C° 0 mm 3 mps 711 mmHg 29%
    Mostrar más